Flag for U.S.A. Weather past 2 weeks in Orlando, Florida, U.S.A.

Now
53 °F

Overcast.


Feels Like: 51 °F
Forecast: 50 / 68 °F
Wind: 8 mph from North

Location: Orlando Executive Airport

Current Time: Feb 27, 2015 at 7:41:10 AM

Latest Report: Feb 27, 2015 at 6:53 AM


Visibility: 10 mi

Pressure: 30.16 "Hg

Humidity: 74%

Dew point: 45 °F

Location of OrlandoLocation

Historic Weather in Orlando — Graph

°F

Orlando temperature yesterday

Maximum temperature yesterday: 75 °F (at 4:53 AM)
Minimum temperature yesterday: 57 °F (at 8:53 PM)
Average temperature yesterday: 66 °F

Past Weeks' High & Low Weather Summary

 TemperatureHumidityPressure
High82 °F (Feb 23, 2:53 PM)97% (Feb 17, 8:00 PM)30.47 "Hg (Feb 17, 8:00 PM)
Low34 °F (Feb 20, 6:53 AM)21% (Feb 19, 3:53 PM)29.68 "Hg (Feb 26, 3:53 AM)
Average60 °F65%30.12 "Hg
* Reported Feb 12 5:53 AM — Feb 27 5:53 AM, Orlando, Weather by CustomWeather, © 2015

Note: Actual official high and low records may vary slightly from our data, if they occured in-between our weather recording intervals... More about our weather records

Advertising

Orlando weather history for previous 24 hours

 ConditionsComfort  
Time TempWeatherWind HumidityBarometerVisibility
5:53 AM
Fri, Feb 27
53 °FOvercast.12 mph74%30.14 "Hg10 mi
4:53 AM53 °FOvercast.12 mph74%30.11 "Hg10 mi
3:53 AM54 °FOvercast.9 mph74%30.11 "Hg10 mi
2:53 AM55 °FOvercast.12 mph74%30.09 "Hg10 mi
1:53 AM56 °FOvercast.12 mph75%30.08 "Hg10 mi
12:53 AM57 °FOvercast.9 mph72%30.09 "Hg10 mi
11:53 PM
Thu, Feb 26
57 °FOvercast.12 mph72%30.08 "Hg10 mi
10:53 PM57 °FOvercast.12 mph72%30.08 "Hg10 mi
9:53 PM57 °FOvercast.12 mph78%30.07 "Hg10 mi
8:53 PM57 °FOvercast.9 mph81%30.04 "Hg10 mi
7:53 PM59 °FOvercast.9 mph78%30.01 "Hg10 mi
6:53 PM66 °FOvercast.8 mph63%29.97 "Hg10 mi
5:53 PM67 °FMostly cloudy.6 mph68%29.94 "Hg10 mi
4:53 PM67 °FOvercast.3 mph68%29.90 "Hg10 mi
3:53 PM67 °FOvercast.7 mph66%29.89 "Hg10 mi
2:53 PM67 °FOvercast.9 mph66%29.88 "Hg10 mi
1:53 PM68 °FOvercast.10 mph68%29.87 "Hg5 mi
12:53 PM69 °FOvercast.9 mph68%29.87 "Hg10 mi
11:53 AM71 °FMostly cloudy.10 mph63%29.87 "Hg10 mi
10:53 AM70 °FPartly sunny.9 mph66%29.86 "Hg10 mi
9:53 AM67 °FOvercast.12 mph71%29.86 "Hg10 mi
8:53 AM66 °FMostly cloudy.16 mph75%29.83 "Hg10 mi
7:53 AM64 °FCloudy.10 mph87%29.81 "Hg10 mi
Weather by CustomWeather, © 2015

See weather overviewHow to use our weather pages